Temperature
8 8 8 8 7 7 7 7 7 7 7 7 6 6 6 6 6 6 6 6 5 5 5 5 5 5 4 4 4 4 3 3 3 3 3 3 3 3 3 3 3 3 3
8 7 7 7 7 7 7 7 7 6 6 6 6 6 6 6 5 5 5 5 5 5 5 5 4 4 4 4 4 4 3 3 2 3 3 3 3 3 2 2 2 2 2
7 7 7 7 7 7 7 7 6 6 6 6 6 6 5 5 5 5 5 5 5 5 4 4 4 4 4 3 3 3 3 3 2 2 2 2 2 2 2 2 2 2 2
7 7 7 7 7 7 6 6 6 6 6 5 5 5 5 5 5 5 4 4 4 4 4 4 4 3 3 3 3 3 2 2 2 1 1 1 1 1 1 1 2 2 1
7 7 7 7 6 6 6 6 6 5 5 5 5 5 5 4 4 4 4 4 4 4 4 3 3 3 3 3 2 2 2 2 1 1 1 1 1 1 1 1 1 1 1
7 7 6 6 6 6 6 5 5 5 5 5 5 4 4 4 4 4 4 4 3 3 3 3 3 3 2 2 2 2 1 1 1 1 0 0 1 0 0 -0 -0 -0 -0
7 6 6 6 5 5 5 5 5 5 5 4 4 4 4 4 4 3 3 3 3 3 3 3 2 2 2 2 1 1 1 1 0 0 -0 -0 -0 -0 -1 -1 -1 -1 -1
6 6 6 5 5 5 5 5 5 4 4 4 4 4 4 4 3 3 3 3 3 3 2 2 2 2 1 1 1 1 1 0 0 -0 -0 -0 -1 -1 -1 -1 -2 -2 -1
6 5 5 5 5 5 5 4 4 4 4 4 3 3 3 3 3 3 3 2 2 2 2 2 2 1 1 1 0 0 0 0 -0 -0 -1 -1 -1 -1 -2 -2 -2 -2 -2
5 5 5 5 4 4 4 4 4 3 3 3 3 3 3 3 2 2 2 2 2 2 2 1 1 1 1 0 -0 -0 -0 -0 -1 -1 -1 -1 -1 -1 -2 -2 -3 -3 -3
5 4 4 4 4 4 3 3 3 3 3 3 3 2 2 2 2 2 2 2 1 1 1 1 1 0 0 -0 -0 -1 -1 -1 -1 -1 -1 -1 -2 -2 -2 -3 -3 -3 -4
4 4 4 4 3 3 3 3 3 2 2 2 2 2 2 2 2 2 1 1 1 1 1 0 0 -0 -0 -1 -1 -1 -1 -1 -2 -2 -2 -2 -2 -2 -3 -3 -3 -4 -4
3 3 3 3 3 3 2 2 2 2 2 2 2 2 2 1 1 1 1 1 0 0 -0 -0 -1 -1 -1 -1 -1 -1 -2 -2 -2 -2 -2 -2 -3 -3 -3 -3 -4 -4 -4
3 3 3 2 2 2 2 2 2 1 1 1 1 1 1 1 1 1 0 0 -0 -0 -1 -1 -1 -1 -1 -2 -2 -2 -2 -2 -3 -3 -3 -3 -3 -3 -4 -4 -4 -4 -5
2 2 2 2 1 1 1 1 1 1 1 0 0 0 0 0 0 0 -0 -1 -1 -1 -1 -1 -2 -2 -2 -2 -2 -2 -3 -3 -3 -3 -4 -4 -4 -4 -4 -5 -5 -5 -5
1 1 1 1 1 1 1 1 1 0 0 -0 -0 -0 -0 -0 -1 -1 -1 -1 -2 -2 -2 -2 -2 -2 -3 -3 -3 -3 -3 -3 -4 -4 -4 -4 -5 -5 -5 -5 -5 -5 -5
1 1 0 0 0 0 -0 -0 -0 -0 -0 -1 -1 -1 -1 -1 -1 -1 -2 -2 -2 -2 -3 -3 -3 -3 -3 -3 -3 -4 -4 -4 -4 -5 -5 -5 -5 -5 -5 -6 -6 -6 -6
0 0 -0 -0 -0 -1 -1 -1 -1 -1 -1 -1 -1 -1 -1 -2 -2 -2 -2 -2 -3 -3 -3 -3 -3 -4 -4 -4 -4 -4 -4 -4 -5 -5 -5 -5 -5 -6 -6 -6 -6 -6 -6
-0 -0 -0 -1 -1 -1 -1 -2 -2 -2 -2 -2 -2 -2 -2 -2 -2 -3 -3 -3 -3 -3 -3 -4 -4 -4 -4 -4 -4 -5 -5 -5 -5 -5 -5 -5 -6 -6 -6 -6 -6 -7 -7
-1 -1 -1 -1 -1 -2 -2 -2 -2 -2 -2 -2 -2 -2 -2 -3 -3 -3 -3 -3 -4 -4 -4 -4 -4 -4 -4 -5 -5 -5 -5 -5 -5 -6 -6 -6 -6 -6 -6 -7 -7 -7 -7
-1 -1 -2 -2 -2 -2 -2 -2 -3 -3 -3 -3 -3 -3 -3 -3 -3 -3 -3 -4 -4 -4 -4 -4 -4 -5 -5 -5 -5 -5 -5 -6 -6 -6 -6 -6 -6 -7 -7 -7 -7 -7 -7
-2 -2 -2 -2 -2 -3 -3 -3 -3 -3 -3 -3 -3 -3 -4 -4 -4 -4 -4 -4 -4 -4 -5 -5 -5 -5 -5 -5 -5 -6 -6 -6 -6 -6 -6 -6 -7 -7 -7 -7 -7 -7 -7
-3 -3 -3 -3 -3 -3 -3 -3 -3 -3 -4 -4 -4 -4 -4 -4 -4 -4 -4 -4 -5 -5 -5 -5 -5 -5 -5 -5 -5 -6 -6 -6 -6 -6 -6 -7 -7 -7 -7 -7 -7 -7 -8
-3 -3 -3 -3 -3 -4 -4 -4 -4 -4 -4 -4 -4 -4 -4 -4 -4 -4 -5 -5 -5 -5 -5 -5 -5 -5 -5 -6 -6 -6 -6 -6 -6 -6 -7 -7 -7 -7 -7 -7 -7 -8 -8
-4 -4 -4 -4 -4 -4 -4 -4 -4 -4 -4 -4 -4 -4 -4 -5 -5 -5 -5 -5 -5 -5 -6 -6 -6 -6 -6 -6 -6 -6 -6 -6 -7 -7 -7 -7 -7 -7 -7 -7 -8 -8 -8
-4 -5 -5 -5 -5 -5 -5 -5 -5 -5 -5 -5 -5 -5 -5 -5 -5 -5 -5 -5 -6 -6 -6 -6 -6 -6 -6 -6 -6 -6 -7 -7 -7 -7 -7 -7 -7 -7 -8 -8 -8 -8 -8
Wind_Speed
4 4 4 4 4 4 4 4 3 3 3 3 4 3 3 3 3 3 3 3 3 3 2 3 3 3 2 2 2 2 3 3 5 4 3 3 3 4 7 8 8 9 9
4 4 4 4 4 4 4 4 3 3 3 3 3 3 3 3 3 4 4 4 4 4 3 3 4 3 3 3 2 3 4 4 5 6 4 3 4 4 5 5 7 8 9
4 4 4 4 4 5 4 4 4 4 3 3 3 4 4 4 4 4 4 4 4 4 4 5 5 4 4 3 3 3 3 4 4 5 5 3 4 3 4 4 4 5 7
4 4 4 4 4 5 4 4 4 4 4 4 4 4 4 4 4 4 4 4 4 4 5 5 5 5 6 5 4 5 4 4 4 4 5 4 4 3 2 3 4 3 4
5 5 5 4 4 3 4 4 4 4 5 4 4 4 4 4 4 5 5 5 5 5 5 5 5 7 8 6 5 5 4 3 4 4 5 4 4 3 3 2 4 4 4
5 5 5 4 4 4 4 4 4 4 4 4 5 5 5 5 7 8 6 5 5 5 5 5 5 6 8 9 9 8 7 5 5 4 4 5 6 4 3 3 3 4 4
5 5 4 4 5 5 4 4 5 5 5 5 5 5 6 7 8 9 9 5 5 5 6 5 4 5 6 5 7 8 8 10 9 6 6 7 6 5 4 4 4 5 5
4 4 4 5 5 4 4 5 5 4 5 5 6 6 6 7 9 9 9 5 5 5 6 6 6 5 5 5 5 5 6 6 8 6 7 7 7 5 5 5 5 5 4
4 5 5 5 5 5 5 6 5 4 5 5 4 6 6 7 9 9 8 4 4 6 6 6 6 6 9 9 6 6 6 6 8 9 10 10 11 10 7 3 3 3 4
5 5 4 5 5 6 6 5 4 4 5 5 5 5 6 7 8 9 8 4 4 4 4 5 9 9 10 10 6 6 7 7 5 5 6 7 6 7 8 5 4 4 4
4 3 3 4 5 5 4 4 4 4 4 4 5 5 6 7 8 9 8 4 5 5 5 5 6 10 11 10 8 6 9 7 4 4 4 4 3 3 4 4 5 5 5
3 3 3 4 4 3 4 4 3 4 4 5 4 5 4 5 7 8 9 8 7 6 6 5 6 9 10 10 8 8 11 7 3 3 4 4 4 4 4 5 6 7 8
2 3 3 3 3 3 4 4 3 3 4 4 4 5 5 4 5 9 9 9 9 6 5 8 8 9 9 7 9 9 7 3 3 4 5 5 4 4 4 4 4 5 7
4 4 3 3 3 3 3 4 4 4 5 5 5 6 5 4 4 4 4 5 7 6 4 6 8 8 6 6 6 5 4 4 4 5 5 4 3 3 4 3 3 3 4
4 4 4 4 4 4 4 4 5 6 6 6 6 6 5 6 7 8 6 5 4 5 3 2 2 2 3 3 3 4 4 4 4 4 4 4 4 4 4 3 3 3 4
4 4 3 3 3 3 4 4 6 7 9 10 9 8 7 8 9 9 9 9 8 7 4 3 4 4 5 5 4 4 4 4 5 5 5 5 5 5 4 3 3 4 5
5 5 4 4 4 4 4 4 5 5 6 8 9 9 9 8 9 8 8 8 8 7 4 4 5 5 5 5 5 5 5 5 4 5 5 5 5 5 5 4 4 4 5
5 5 5 4 4 4 4 4 4 4 4 4 5 8 9 8 8 7 7 5 4 5 4 5 5 5 5 5 5 5 5 4 4 5 5 5 5 5 5 5 4 5 5
4 4 4 4 4 4 4 4 4 5 5 5 4 4 6 6 6 7 5 3 4 5 5 5 5 5 5 5 5 5 5 5 5 5 5 5 5 5 5 5 5 7 6
4 6 5 3 3 4 4 4 4 5 5 5 5 4 3 2 3 4 4 4 4 5 5 5 5 5 5 5 5 5 5 5 5 5 5 5 5 4 5 5 5 5 4
3 4 5 4 4 4 4 4 5 5 5 5 5 6 6 4 5 5 5 4 5 5 5 5 5 5 5 5 5 5 6 5 5 5 5 4 4 4 4 4 4 4 4
3 3 3 4 4 4 4 4 5 5 6 6 5 5 8 5 4 5 5 5 5 4 4 5 5 5 5 5 5 5 6 6 5 5 5 4 4 4 4 4 3 3 3
3 3 3 3 4 5 5 4 4 5 5 5 5 5 4 5 5 5 5 4 4 4 4 4 5 5 4 5 6 6 6 6 5 5 5 4 4 4 4 4 4 4 3
3 4 4 4 3 3 4 4 4 5 5 5 5 5 5 5 5 5 5 4 4 4 4 4 5 6 6 5 6 6 7 7 6 6 6 5 5 4 4 4 4 4 4
3 4 4 4 4 4 4 4 4 4 4 5 5 5 4 4 5 4 4 4 4 4 5 4 4 5 6 7 6 6 8 9 8 6 5 4 5 4 4 4 3 3 3
3 4 4 4 4 4 4 4 4 4 4 5 4 4 4 4 4 4 4 4 4 4 4 4 5 6 6 6 7 8 8 8 7 7 5 4 4 4 4 3 4 3 3
Wind_Direction
176 176 175 184 184 177 183 194 192 189 189 192 194 192 194 198 192 190 203 195 197 206 205 209 220 209 206 213 205 205 210 205 241 271 264 275 274 279 300 299 296 294 296
179 177 184 182 177 182 196 199 190 196 197 196 193 193 203 206 202 201 208 205 204 214 218 219 229 216 216 214 211 220 221 217 225 261 276 273 265 271 279 286 294 294 290
176 178 181 183 188 198 204 201 195 195 198 198 198 205 212 212 210 213 211 211 213 218 218 221 228 214 228 224 219 230 234 232 224 244 268 268 271 276 283 283 285 290 293
182 185 194 201 205 208 204 200 200 198 201 207 211 216 218 218 216 217 215 218 221 225 224 223 222 217 225 225 225 227 230 236 236 249 263 271 270 270 267 282 298 291 294
188 197 210 206 202 203 204 206 205 206 211 210 212 221 223 221 222 220 220 221 221 230 233 231 229 228 229 227 228 222 217 230 240 249 261 270 270 270 266 260 282 300 291
198 211 209 194 195 205 209 205 205 212 214 211 215 219 226 233 242 238 228 221 220 224 234 238 240 239 242 244 246 238 224 224 232 239 255 262 268 261 259 262 277 303 301
207 212 205 199 205 212 209 203 212 218 215 221 225 223 232 241 246 245 235 219 219 223 227 230 240 240 243 239 251 251 248 249 241 232 244 253 260 250 254 265 257 257 264
211 217 211 206 215 214 208 217 223 218 217 223 229 229 237 248 248 245 240 222 221 227 227 224 229 239 236 233 232 240 247 253 253 242 238 247 248 248 241 247 255 263 265
217 223 219 211 215 216 221 229 226 219 224 226 230 229 236 251 249 244 238 216 226 236 234 228 227 234 246 247 238 241 254 262 266 259 258 262 267 268 259 252 252 266 282
233 230 222 213 214 222 228 230 227 220 227 228 236 233 233 244 251 246 234 211 225 239 242 239 241 242 248 246 236 233 249 258 254 265 270 273 272 271 266 239 227 240 265
240 232 228 222 223 228 232 233 229 224 225 229 239 244 239 242 252 248 234 214 218 232 240 240 240 247 250 250 246 236 250 258 246 245 258 265 265 259 258 250 230 224 237
233 234 240 237 234 230 225 235 226 217 224 234 240 255 250 247 248 250 241 238 232 226 236 238 240 248 251 253 252 252 261 266 243 242 256 261 261 259 254 252 249 243 239
238 243 250 249 242 227 221 229 231 220 226 237 235 249 259 250 250 252 250 249 246 236 235 243 249 254 255 256 255 258 261 245 234 247 254 256 250 249 249 255 255 256 259
239 249 248 243 249 242 230 224 224 225 229 235 236 244 252 253 246 241 239 244 244 244 246 251 256 258 253 253 260 259 241 229 235 246 255 256 249 247 250 246 253 260 267
238 244 247 242 237 241 239 231 231 231 226 229 235 233 240 253 251 243 240 234 224 229 234 231 233 245 239 242 246 246 239 240 248 245 254 262 260 256 257 247 245 250 253
243 246 244 246 243 239 249 269 253 246 255 250 248 245 245 250 256 250 250 253 251 242 242 235 238 239 241 243 246 248 240 238 242 246 249 253 256 255 258 251 245 244 254
238 244 248 245 241 240 240 249 273 280 266 260 256 255 256 260 257 254 253 253 250 239 238 235 239 241 243 241 241 242 245 243 241 245 250 248 247 250 252 254 251 252 256
239 243 242 241 238 239 240 244 247 256 274 274 265 262 261 260 259 257 256 256 246 232 227 237 243 244 243 242 241 244 248 248 246 246 246 245 242 247 253 253 251 250 259
241 243 240 238 236 239 242 244 245 247 254 264 272 272 261 260 261 256 244 227 231 238 237 240 243 243 245 244 245 244 245 248 250 250 248 243 240 242 249 249 250 257 259
246 248 245 241 237 236 237 240 244 245 248 250 251 251 241 242 246 245 232 229 237 243 243 244 244 242 241 242 242 244 248 248 246 246 245 242 239 238 244 245 245 250 250
252 255 251 250 243 239 238 240 243 243 246 250 251 247 242 236 238 240 240 239 241 244 245 245 246 242 238 238 239 242 244 247 242 241 242 241 238 242 244 241 241 241 243
249 253 252 253 255 250 248 242 242 244 246 250 257 258 255 249 242 243 245 247 244 242 243 245 246 239 234 234 236 239 243 243 239 234 235 235 235 239 238 235 236 236 231
250 257 263 264 260 263 263 249 245 247 249 248 248 249 249 244 244 245 248 249 249 250 245 240 244 247 241 236 232 231 237 240 237 230 230 233 232 231 230 229 226 227 227
258 259 263 267 265 257 256 258 254 251 250 251 249 247 245 243 244 248 249 250 250 250 244 240 242 244 245 246 242 238 239 243 237 226 220 226 229 228 224 223 219 217 219
259 260 260 259 261 261 260 259 257 256 256 256 254 253 250 248 248 249 249 248 248 250 250 247 245 246 246 246 247 247 248 250 247 234 219 217 221 220 217 217 212 206 205
261 262 262 259 258 258 257 258 258 256 256 257 256 253 251 250 251 251 248 246 247 249 252 250 246 248 250 252 252 251 253 253 249 241 223 208 210 213 207 207 197 197 194
Height
1491 1493 1495 1497 1498 1500 1501 1502 1503 1503 1504 1505 1505 1506 1506 1506 1507 1507 1507 1507 1506 1506 1507 1507 1506 1506 1505 1505 1504 1504 1504 1503 1501 1499 1499 1499 1498 1497 1495 1494 1492 1491 1490
1489 1491 1493 1494 1495 1497 1498 1499 1499 1500 1501 1501 1502 1502 1503 1503 1503 1503 1503 1503 1503 1503 1503 1502 1502 1501 1501 1501 1500 1500 1499 1498 1497 1495 1494 1494 1493 1492 1490 1489 1488 1486 1485
1487 1489 1490 1491 1492 1493 1494 1495 1496 1496 1497 1498 1498 1499 1499 1499 1499 1499 1499 1499 1499 1498 1498 1498 1498 1497 1497 1496 1496 1495 1494 1493 1492 1490 1489 1488 1488 1487 1485 1484 1483 1481 1480
1485 1486 1487 1488 1489 1490 1491 1491 1492 1492 1493 1494 1494 1494 1495 1495 1495 1495 1495 1494 1494 1494 1494 1494 1493 1493 1493 1492 1491 1490 1490 1488 1487 1485 1484 1483 1482 1481 1480 1478 1476 1475 1474
1481 1482 1483 1484 1485 1486 1486 1487 1487 1488 1489 1489 1490 1490 1490 1490 1490 1490 1490 1490 1489 1489 1489 1489 1489 1488 1488 1487 1486 1485 1484 1483 1482 1481 1479 1478 1477 1476 1475 1473 1471 1469 1468
1477 1478 1479 1480 1480 1481 1482 1482 1483 1483 1484 1484 1484 1485 1485 1485 1485 1485 1485 1485 1484 1484 1484 1484 1484 1484 1483 1482 1481 1480 1480 1479 1477 1476 1475 1473 1472 1472 1470 1468 1466 1464 1462
1473 1474 1474 1475 1476 1477 1477 1478 1478 1479 1479 1479 1480 1480 1480 1480 1480 1480 1480 1480 1479 1479 1479 1479 1478 1478 1478 1477 1476 1475 1475 1474 1473 1472 1470 1468 1467 1467 1465 1463 1462 1460 1458
1469 1470 1470 1471 1471 1472 1472 1473 1473 1474 1474 1474 1474 1474 1475 1475 1475 1475 1475 1474 1474 1474 1474 1474 1473 1473 1473 1472 1471 1470 1469 1468 1468 1466 1465 1463 1463 1461 1460 1459 1457 1455 1453
1465 1466 1466 1467 1467 1467 1468 1468 1468 1468 1468 1469 1469 1469 1469 1469 1469 1469 1469 1468 1468 1468 1468 1468 1468 1467 1467 1466 1465 1464 1463 1462 1462 1460 1459 1458 1457 1456 1455 1454 1452 1450 1448
1461 1461 1462 1462 1462 1462 1463 1463 1463 1463 1463 1463 1463 1463 1463 1464 1464 1464 1463 1463 1462 1462 1462 1462 1462 1462 1461 1460 1459 1458 1457 1456 1456 1455 1454 1453 1452 1450 1449 1448 1447 1445 1443
1456 1457 1457 1457 1457 1458 1458 1458 1458 1458 1458 1458 1458 1458 1458 1458 1458 1458 1457 1457 1457 1456 1456 1456 1456 1456 1455 1455 1454 1453 1452 1451 1450 1449 1448 1447 1446 1444 1443 1442 1441 1440 1439
1452 1452 1452 1452 1452 1452 1452 1453 1453 1453 1452 1452 1452 1452 1452 1452 1452 1451 1451 1451 1451 1450 1450 1450 1450 1450 1449 1449 1448 1447 1446 1445 1444 1443 1442 1441 1439 1439 1438 1437 1436 1434 1433
1447 1447 1447 1447 1447 1447 1447 1447 1447 1447 1447 1446 1446 1446 1446 1446 1446 1446 1445 1445 1445 1444 1444 1444 1444 1444 1443 1442 1442 1441 1440 1439 1438 1437 1436 1435 1434 1433 1432 1431 1429 1428 1427
1442 1442 1442 1441 1441 1441 1441 1441 1441 1441 1441 1441 1440 1440 1440 1440 1440 1440 1439 1439 1439 1438 1438 1438 1438 1437 1437 1436 1436 1435 1434 1434 1432 1431 1430 1429 1428 1427 1426 1425 1423 1422 1421
1437 1437 1437 1436 1436 1436 1436 1436 1435 1435 1435 1435 1435 1434 1434 1433 1433 1434 1433 1432 1432 1433 1432 1432 1431 1431 1430 1430 1429 1429 1428 1428 1427 1425 1424 1423 1422 1421 1420 1419 1418 1417 1416
1432 1431 1431 1431 1430 1430 1430 1430 1429 1430 1429 1429 1429 1429 1428 1428 1427 1427 1427 1427 1427 1427 1426 1425 1425 1425 1424 1424 1423 1422 1422 1421 1420 1419 1418 1417 1416 1415 1414 1414 1413 1412 1410
1427 1426 1426 1426 1425 1425 1424 1424 1423 1423 1423 1423 1423 1423 1422 1422 1422 1421 1421 1421 1421 1421 1420 1419 1419 1419 1419 1418 1417 1417 1416 1415 1414 1413 1412 1412 1411 1410 1409 1408 1407 1406 1405
1422 1421 1421 1420 1420 1420 1419 1418 1418 1417 1417 1416 1417 1417 1417 1416 1416 1416 1416 1416 1415 1415 1414 1414 1414 1413 1413 1413 1412 1411 1410 1409 1408 1407 1406 1406 1405 1404 1403 1402 1402 1401 1400
1417 1416 1416 1415 1415 1414 1414 1413 1413 1412 1412 1411 1411 1411 1411 1411 1411 1411 1410 1410 1409 1409 1409 1408 1408 1408 1407 1407 1406 1405 1404 1403 1402 1401 1401 1400 1399 1399 1398 1397 1397 1396 1396
1411 1411 1410 1410 1409 1409 1408 1408 1407 1407 1406 1406 1406 1406 1405 1405 1405 1405 1405 1404 1404 1404 1403 1403 1403 1402 1402 1401 1400 1399 1398 1397 1396 1396 1395 1395 1394 1393 1393 1392 1392 1391 1391
1406 1406 1405 1404 1404 1403 1403 1403 1402 1402 1401 1401 1400 1400 1400 1400 1399 1399 1399 1399 1398 1398 1398 1397 1397 1396 1396 1395 1394 1393 1392 1392 1391 1391 1390 1389 1389 1388 1388 1388 1387 1387 1387
1401 1401 1400 1399 1399 1398 1398 1397 1397 1396 1396 1395 1395 1395 1395 1395 1394 1394 1394 1393 1393 1393 1392 1392 1391 1391 1390 1389 1388 1387 1387 1386 1386 1385 1385 1384 1384 1384 1384 1383 1383 1383 1383
1397 1396 1395 1394 1394 1393 1393 1393 1392 1391 1391 1390 1390 1390 1390 1389 1389 1388 1388 1388 1388 1387 1387 1387 1386 1385 1385 1384 1383 1382 1382 1381 1381 1381 1380 1379 1379 1379 1379 1379 1379 1379 1379
1392 1391 1391 1390 1389 1389 1388 1388 1387 1386 1386 1385 1385 1384 1384 1384 1384 1383 1383 1382 1382 1382 1382 1381 1381 1380 1379 1379 1378 1378 1377 1377 1376 1376 1376 1375 1375 1375 1375 1375 1375 1375 1376
1388 1387 1386 1385 1385 1384 1383 1383 1382 1382 1381 1380 1380 1379 1379 1379 1379 1378 1378 1377 1377 1377 1376 1376 1375 1375 1374 1374 1373 1373 1372 1372 1372 1371 1371 1371 1371 1372 1372 1372 1372 1372 1372
1383 1382 1382 1381 1380 1380 1379 1378 1378 1377 1376 1376 1375 1375 1374 1374 1374 1373 1373 1373 1372 1372 1371 1371 1371 1370 1370 1369 1369 1368 1368 1368 1367 1367 1368 1368 1368 1368 1368 1368 1368 1369 1369